Location: Chevoux
(46.3801°N, 4.9476°E)
Time: 22:55:47
(UTC+00:00)

CZ-4C R/B - Pass Details

Date: 28 January 2021
Orbit: 617 x 1385 km, 63.4° (Epoch: 04 March)

Event Time Altitude Azimuth Distance (km) Brightness Sun altitude
Rises 19:50:18 0° 319° (NW) 3,636 6.1 -33.0°
Reaches altitude 10° 19:53:05 10° 330° (NNW) 2,810 5.3 -33.4°
Enters shadow 19:56:58 26° 3° (N) 2,017 4.1 -34.1°
